When you browse on this site, cookies collect data to enhance your experience and personalize the content and advertising you see.
Visit our Privacy Policy to learn more. By continuing to use the site, you agree to this use of cookies and data.
  • In Österreich
  • Länderverzeichnis
  • Für 7 Tage
  • Wassertemperatur
  • Satellitenkarten
  • Wetterkarte
  • News
  • Widgets
  • user-avatar
    Anmelden

    Stündliche Wetter Jampil

    Heute, 19 Februar, Dienstag

    Zeit Temperatur Niederschläge Wind Luftdruck Luftfeuchtigkeit
    00:00 +3°C° 0 mm 2 m/S 757 mmHg 80%
    01:00 +2°C° 0 mm 2 m/S 757 mmHg 80%
    02:00 +3°C° 0 mm 1 m/S 757 mmHg 82%
    03:00 +2°C° 0 mm 2 m/S 757 mmHg 83%
    04:00 +1°C° 0 mm 2 m/S 757 mmHg 83%
    05:00 +1°C° 0 mm 2 m/S 756 mmHg 83%
    06:00 0°C° 0 mm 3 m/S 756 mmHg 83%
    07:00 0°C° 0 mm 3 m/S 756 mmHg 83%
    08:00 0°C° 0 mm 3 m/S 756 mmHg 81%
    09:00 +1°C° 0 mm 4 m/S 756 mmHg 76%
    10:00 +3°C° 0 mm 4 m/S 756 mmHg 72%
    11:00 +3°C° 0 mm 5 m/S 756 mmHg 67%
    12:00 +5°C° 0 mm 5 m/S 755 mmHg 66%
    13:00 +6°C° 0 mm 5 m/S 755 mmHg 64%
    14:00 +7°C° 0 mm 6 m/S 754 mmHg 63%
    15:00 +7°C° 0 mm 5 m/S 754 mmHg 65%
    16:00 +7°C° 0 mm 5 m/S 753 mmHg 67%
    17:00 +6°C° 0 mm 4 m/S 753 mmHg 69%
    18:00 +6°C° 0 mm 4 m/S 753 mmHg 73%
    19:00 +5°C° 0 mm 4 m/S 752 mmHg 77%
    20:00 +4°C° 0 mm 4 m/S 752 mmHg 80%
    21:00 +4°C° 0 mm 3 m/S 752 mmHg 83%
    22:00 +3°C° 0 mm 3 m/S 752 mmHg 86%
    23:00 +3°C° 0 mm 3 m/S 752 mmHg 89%

    Morgen, 20 Februar, Mittwoch

    Zeit Temperatur Niederschläge Wind Luftdruck Luftfeuchtigkeit
    00:00 +3°C° 0 mm 3 m/S 751 mmHg 91%
    01:00 +2°C° 0 mm 3 m/S 751 mmHg 93%
    02:00 +2°C° 0 mm 3 m/S 751 mmHg 94%
    03:00 +3°C° 0 mm 2 m/S 751 mmHg 95%
    04:00 +3°C° 0 mm 1 m/S 750 mmHg 96%
    05:00 +3°C° 0 mm 1 m/S 750 mmHg 96%
    06:00 +3°C° 0 mm 1 m/S 750 mmHg 95%
    07:00 +3°C° 0 mm 1 m/S 750 mmHg 94%
    08:00 +4°C° 0 mm 1 m/S 750 mmHg 92%
    09:00 +4°C° 0 mm 2 m/S 750 mmHg 84%
    10:00 +5°C° 0 mm 3 m/S 750 mmHg 75%
    11:00 +7°C° 0 mm 5 m/S 750 mmHg 66%
    12:00 +6°C° 0.1 mm 5 m/S 750 mmHg 69%
    13:00 +6°C° 0.1 mm 5 m/S 750 mmHg 71%
    14:00 +5°C° 0.1 mm 6 m/S 750 mmHg 73%
    15:00 +6°C° 0 mm 5 m/S 750 mmHg 72%
    16:00 +6°C° 0 mm 5 m/S 751 mmHg 72%
    17:00 +6°C° 0 mm 5 m/S 751 mmHg 71%
    18:00 +5°C° 0 mm 4 m/S 751 mmHg 74%
    19:00 +4°C° 0 mm 4 m/S 752 mmHg 76%
    20:00 +3°C° 0 mm 4 m/S 752 mmHg 78%
    21:00 +3°C° 0 mm 4 m/S 752 mmHg 78%
    22:00 +3°C° 0 mm 4 m/S 752 mmHg 78%
    23:00 +2°C° 0 mm 5 m/S 753 mmHg 78%

    übermorgen, 21 Februar, Donnerstag

    Zeit Temperatur Niederschläge Wind Luftdruck Luftfeuchtigkeit
    00:00 +2°C° 0 mm 5 m/S 753 mmHg 78%
    01:00 +2°C° 0 mm 5 m/S 753 mmHg 78%
    02:00 +2°C° 0 mm 5 m/S 753 mmHg 78%
    03:00 +2°C° 0 mm 5 m/S 753 mmHg 79%
    04:00 +1°C° 0 mm 6 m/S 753 mmHg 81%
    05:00 +1°C° 0 mm 6 m/S 752 mmHg 82%
    06:00 +1°C° 0 mm 6 m/S 753 mmHg 83%
    07:00 +1°C° 0 mm 6 m/S 753 mmHg 84%
    08:00 +1°C° 0 mm 6 m/S 753 mmHg 85%
    09:00 +2°C° 0 mm 7 m/S 753 mmHg 78%
    10:00 +3°C° 0 mm 7 m/S 753 mmHg 71%
    11:00 +2°C° 0 mm 8 m/S 753 mmHg 64%
    12:00 +4°C° 0 mm 8 m/S 753 mmHg 63%
    13:00 +4°C° 0 mm 8 m/S 753 mmHg 63%
    14:00 +4°C° 0 mm 7 m/S 753 mmHg 62%
    15:00 +4°C° 0 mm 7 m/S 753 mmHg 65%
    16:00 +4°C° 0 mm 6 m/S 753 mmHg 67%
    17:00 +5°C° 0 mm 5 m/S 752 mmHg 69%
    18:00 +5°C° 0 mm 5 m/S 752 mmHg 74%
    19:00 +4°C° 0 mm 4 m/S 753 mmHg 79%
    20:00 +4°C° 0 mm 4 m/S 753 mmHg 84%
    21:00 +4°C° 0.1 mm 4 m/S 753 mmHg 84%
    22:00 +4°C° 0.1 mm 4 m/S 752 mmHg 84%
    23:00 +4°C° 0.1 mm 4 m/S 752 mmHg 85%

    22 Februar, Freitag

    Zeit Temperatur Niederschläge Wind Luftdruck Luftfeuchtigkeit
    00:00 +4°C° 0.3 mm 4 m/S 752 mmHg 85%
    01:00 +4°C° 0.3 mm 3 m/S 752 mmHg 85%
    02:00 +4°C° 0.3 mm 3 m/S 752 mmHg 86%
    03:00 +3°C° 0.2 mm 3 m/S 751 mmHg 87%
    04:00 +4°C° 0.2 mm 2 m/S 751 mmHg 88%
    05:00 +4°C° 0.2 mm 2 m/S 750 mmHg 89%
    06:00 +2°C° 0.4 mm 3 m/S 751 mmHg 89%
    07:00 0°C° 0.4 mm 4 m/S 751 mmHg 88%
    08:00 -1°C° 0.4 mm 5 m/S 751 mmHg 88%
    09:00 -2°C° 0.3 mm 6 m/S 751 mmHg 85%
    10:00 -3°C° 0.3 mm 7 m/S 752 mmHg 81%
    11:00 -4°C° 0.3 mm 7 m/S 752 mmHg 78%
    12:00 -4°C° 0.2 mm 7 m/S 753 mmHg 76%
    13:00 -4°C° 0.2 mm 7 m/S 754 mmHg 73%
    14:00 -4°C° 0.2 mm 7 m/S 755 mmHg 70%
    15:00 -6°C° 0 mm 7 m/S 756 mmHg 66%
    16:00 -7°C° 0 mm 7 m/S 757 mmHg 61%
    17:00 -7°C° 0 mm 7 m/S 758 mmHg 56%
    18:00 -8°C° 0 mm 7 m/S 758 mmHg 55%
    19:00 -8°C° 0 mm 7 m/S 759 mmHg 54%
    20:00 -9°C° 0 mm 7 m/S 760 mmHg 53%
    21:00 -9°C° 0 mm 6 m/S 760 mmHg 52%
    22:00 -9°C° 0 mm 6 m/S 760 mmHg 51%
    23:00 -9°C° 0 mm 6 m/S 761 mmHg 50%

    23 Februar, Samstag

    Zeit Temperatur Niederschläge Wind Luftdruck Luftfeuchtigkeit
    00:00 -9°C° 0 mm 6 m/S 761 mmHg 51%
    01:00 -9°C° 0 mm 6 m/S 761 mmHg 52%
    02:00 -9°C° 0 mm 6 m/S 761 mmHg 53%
    03:00 -9°C° 0 mm 6 m/S 761 mmHg 53%
    04:00 -9°C° 0 mm 6 m/S 761 mmHg 54%
    05:00 -9°C° 0 mm 6 m/S 761 mmHg 54%
    06:00 -9°C° 0 mm 6 m/S 761 mmHg 54%
    07:00 -9°C° 0 mm 6 m/S 761 mmHg 55%
    08:00 -9°C° 0 mm 6 m/S 762 mmHg 55%
    09:00 -9°C° 0 mm 6 m/S 762 mmHg 52%
    10:00 -8°C° 0 mm 6 m/S 762 mmHg 50%
    11:00 -8°C° 0 mm 6 m/S 762 mmHg 47%
    12:00 -8°C° 0 mm 6 m/S 762 mmHg 47%
    13:00 -8°C° 0 mm 6 m/S 762 mmHg 47%
    14:00 -8°C° 0 mm 6 m/S 762 mmHg 46%
    15:00 -8°C° 0 mm 6 m/S 762 mmHg 48%
    16:00 -8°C° 0 mm 6 m/S 762 mmHg 49%
    17:00 -7°C° 0 mm 5 m/S 762 mmHg 51%
    18:00 -7°C° 0 mm 5 m/S 762 mmHg 52%
    19:00 -7°C° 0 mm 5 m/S 762 mmHg 53%
    20:00 -7°C° 0 mm 5 m/S 763 mmHg 55%
    21:00 -8°C° 0 mm 4 m/S 763 mmHg 55%
    22:00 -8°C° 0 mm 4 m/S 763 mmHg 56%
    23:00 -8°C° 0 mm 4 m/S 763 mmHg 57%

    24 Februar, Sonntag

    Zeit Temperatur Niederschläge Wind Luftdruck Luftfeuchtigkeit
    00:00 -8°C° 0 mm 4 m/S 763 mmHg 58%
    01:00 -8°C° 0 mm 4 m/S 762 mmHg 59%
    02:00 -9°C° 0 mm 4 m/S 762 mmHg 60%
    03:00 -9°C° 0 mm 4 m/S 762 mmHg 62%
    04:00 -9°C° 0 mm 4 m/S 762 mmHg 63%
    05:00 -9°C° 0 mm 4 m/S 762 mmHg 65%
    06:00 -9°C° 0 mm 4 m/S 763 mmHg 66%
    07:00 -11°C° 0 mm 5 m/S 763 mmHg 67%
    08:00 -11°C° 0 mm 5 m/S 763 mmHg 68%
    09:00 -10°C° 0 mm 5 m/S 763 mmHg 65%
    10:00 -8°C° 0 mm 5 m/S 764 mmHg 63%
    11:00 -8°C° 0 mm 5 m/S 764 mmHg 60%
    12:00 -7°C° 0 mm 5 m/S 764 mmHg 58%
    13:00 -7°C° 0 mm 5 m/S 763 mmHg 57%
    14:00 -6°C° 0 mm 5 m/S 763 mmHg 55%
    15:00 -6°C° 0 mm 5 m/S 763 mmHg 54%
    16:00 -6°C° 0 mm 5 m/S 763 mmHg 53%
    17:00 -6°C° 0 mm 5 m/S 763 mmHg 52%
    18:00 -5°C° 0 mm 4 m/S 764 mmHg 53%
    19:00 -5°C° 0 mm 4 m/S 764 mmHg 54%
    20:00 -7°C° 0 mm 4 m/S 764 mmHg 54%
    21:00 -7°C° 0 mm 4 m/S 764 mmHg 54%
    22:00 -7°C° 0 mm 4 m/S 764 mmHg 53%
    23:00 -8°C° 0 mm 4 m/S 764 mmHg 53%
    Mehr zeigen